This is the latest recevied weather packets stored in our database for station/object IK2ILW-4. If no packets are shown the sender has not sent any weather packets the latest 10 day(s).
| Time | Temp. | Humidity | Pressure | Rain* | Wind** | Luminosity | Snow |
|---|---|---|---|---|---|---|---|
| 1787926065 | 22.22° C | 71% | 1021.3 hPa | 0.76 mm | - | 81 W/m² | - |
| 1787925754 | 22.22° C | 70% | 1021.3 hPa | 0.76 mm | - | 134 W/m² | - |
| 1787925471 | 22.22° C | 70% | 1021.3 hPa | 0.76 mm | - | 56 W/m² | - |
| 1787925154 | 22.22° C | 70% | 1021.3 hPa | 0.76 mm | - | 69 W/m² | - |
| 1787924855 | 23.33° C | 65% | 1021.3 hPa | 0.76 mm | - | 91 W/m² | - |
| 1787924573 | 23.33° C | 65% | 1021.3 hPa | 0.76 mm | - | 155 W/m² | - |
| 1787924269 | 23.89° C | 62% | 1021.3 hPa | 0.76 mm | - | 114 W/m² | - |
| 1787923973 | 23.89° C | 63% | 1021.3 hPa | 0.76 mm | - | 134 W/m² | - |
| 1787923673 | 23.89° C | 64% | 1021.5 hPa | 0.76 mm | - | 260 W/m² | - |
| 1787923372 | 23.33° C | 63% | 1021.5 hPa | 0.76 mm | - | 411 W/m² | - |
| 1787923058 | 23.33° C | 64% | 1021.5 hPa | 0.76 mm | - | 262 W/m² | - |
| 1787922768 | 23.89° C | 63% | 1021.8 hPa | 0.76 mm | - | 234 W/m² | - |
| 1787922463 | 23.33° C | 63% | 1021.8 hPa | 0.76 mm | - | 592 W/m² | - |
| 1787922173 | 23.33° C | 63% | 1021.8 hPa | 0.76 mm | - | 341 W/m² | - |
| 1787921861 | 23.89° C | 63% | 1022 hPa | 0.76 mm | - | 339 W/m² | - |
| 1787921562 | 23.89° C | 64% | 1022 hPa | 0.76 mm | - | 694 W/m² | - |
| 1787921268 | 23.33° C | 63% | 1022 hPa | 0.76 mm | - | 687 W/m² | - |
| 1787920964 | 23.33° C | 63% | 1022.1 hPa | 0.76 mm | - | 403 W/m² | - |
| 1787920658 | 23.33° C | 63% | 1022.1 hPa | 0.76 mm | - | 316 W/m² | - |
| 1787920365 | 23.33° C | 62% | 1022.1 hPa | 0.76 mm | - | 698 W/m² | - |
| 1787920050 | 23.33° C | 62% | 1022 hPa | 0.76 mm | - | 366 W/m² | - |
| 1787919768 | 23.33° C | 60% | 1022 hPa | 0.76 mm | - | 789 W/m² | - |
| 1787919456 | 22.78° C | 62% | 1022 hPa | 0.76 mm | - | 861 W/m² | - |
| 1787919173 | 22.78° C | 61% | 1022.3 hPa | 0.76 mm | - | 443 W/m² | - |
| 1787918868 | 23.33° C | 60% | 1022.3 hPa | 0.76 mm | - | 204 W/m² | - |
* Rain since midnight (hover to see other rain measurements)
** Current wind speed in m/s (hover to see current wind gust speed)